STARLINK-11624, 63105

Orbit data source: Space-Track

STARLINK-11624, 63105 is a payload satellite owned by SpaceX/Seattle (US) in LEO that was launched on Thu, 27 Feb 2025 UTC via an FALCON 9 launch vehicle from the Air Force Eastern Test Range (AFETR). Payload-class satellites include a variety of spacecraft equipped with specific instruments for various scientific and technological missions. These include communications satellites like Starlink; space stations such as the ISS; scientific satellites like the Hubble; Earth observation satellites from companies like Planet Labs, Umbra, and HawkEye 360; GPS; miniature CubeSats for education and research; and military/defense satellites.

Loading next visibility...
Identifier
63105, 2025-039B
Orbit
LEO
Country
Flag of USUS
Related business
Manufacturer
SpaceX/Seattle
Mission
Operational Commercial Communications
Bus & Motor
STARLINK V2MD, Unknown motor
Mass
960 kg wet, ~910 kg dry
Launch date (UTC)
2025-02-27 (8 months ago)
Launch vehicle
FALCON 9
Launch site
Air Force Eastern Test Range (AFETR)
Object type
Payload
Rocket body
Debris
Shape & HBR
Box + 2 Pan, 18.1 m
Radar Cross Section
36.964 m², Large (>1 m²)

Expand to show TLE details & history
Last TLE update: 23 hours ago

TLE from 23 hours ago
0 STARLINK-11624
1 63105U 25039B   25304.69471852  .00259698  00000-0  19561-2 0  9993
2 63105  42.9997 294.7694 0001858 310.3629  49.7076 15.70946028 39326
Epoch: 2025-10-31T16:40Z
TLE epoch observation values (Epoch: 2025-10-31T16:40:23.680Z)
Latitude
-0.00002°
Longitude
4.43524°
Altitude
355.154 km
Speed
7.698 km/s
True Right ascension
19h 39m 04s
True Declination
0° 00' 00"
Sunlit
Object was in daylight at epoch
Visualization orbit readout
Latitude
Unknown
Longitude
Unknown
Altitude
Unknown
Speed
Unknown
Apparent Right ascension
Unknown
Apparent Declination
Unknown
Sunlit
N/A
Visualization observer readout
Local Sidereal Time
11:24:05
Azimuth
Unknown
Elevation
Unknown
Doppler factor
Unknown
Orbital elements
Apogee altitude
359.425 km
Perigee altitude
356.922 km
Semi-major axis
6,736.311 km
Eccentricity
0.00019
Inclination
42.9997°
RAAN
294.7694°
Arg. of periapsis
310.3629°
True anomaly
49.72384°
Mean anomaly
49.7076°
Eccentric anomaly
49.71572°
Mean motion
3.92564 °/min
Orbital period
91.7 mins
BSTAR
0.0019561
Loading maneuver chart data...
Computing Atmospheric mass density...
Loading historical data...
Loading historical data...
Loading historical data...
Loading historical data...
Loading historical data...
Loading historical data...
Loading historical data...

Documentation

Showing up to 5 results
|